Flag for New Zealand Weather past 2 weeks in Auckland, New Zealand

72 °F

Scattered clouds.

Feels Like: 72 °F
Forecast: 56 / 69 °F
Wind: 14 mph from Northwest

Location: Auckland Airport

Current Time: Nov 28, 2015 at 1:52:36 PM

Latest Report: Nov 28, 2015 at 1:00 PM

Visibility: N/A

Pressure: 29.98 "Hg

Humidity: 78%

Dew point: 64 °F

Location of AucklandLocation

Historic Weather in Auckland — Graph


Auckland temperature yesterday

Maximum temperature yesterday: 77 °F (at 2:30 PM)
Minimum temperature yesterday: 61 °F (at 6:00 AM)
Average temperature yesterday: 68 °F

Past Weeks' High & Low Weather Summary

High77 °F (Nov 27, 2:30 PM)100% (Nov 16, 4:00 AM)30.27 "Hg (Nov 16, 4:00 AM)
Low45 °F (Nov 14, 5:30 AM)37% (Nov 14, 3:00 PM)29.53 "Hg (Nov 22, 2:00 AM)
Average61 °F79%29.99 "Hg
* Reported Nov 13 12:00 Noon — Nov 28 12:00 Noon, Auckland, Weather by CustomWeather, © 2015

Note: Actual official high and low records may vary slightly from our data, if they occured in-between our weather recording intervals... More about our weather records


Auckland weather history for previous 24 hours

Time TempWeatherWind HumidityBarometerVisibility
12:00 PM
Sat, Nov 28
73 °FBroken clouds.12 mph83%30.01 "HgN/A
11:30 AM72 °FBroken clouds.13 mph88%29.98 "HgN/A
11:00 AM68 °FRain showers. Partly sunny.12 mph94%29.98 "Hg2 mi
10:30 AM70 °FPartly sunny.10 mph88%29.98 "HgN/A
10:00 AM68 °FMostly cloudy.8 mph88%29.98 "HgN/A
9:30 AM68 °FOvercast.7 mph88%29.98 "HgN/A
9:00 AM68 °FOvercast.8 mph88%29.98 "HgN/A
8:30 AM66 °FMostly cloudy.9 mph94%29.98 "HgN/A
8:00 AM66 °FOvercast.9 mph94%29.98 "HgN/A
7:30 AM66 °FOvercast.9 mph94%29.98 "HgN/A
7:00 AM66 °FLow clouds.9 mph94%29.98 "HgN/A
6:30 AM66 °FCloudy.9 mph94%29.98 "HgN/A
6:00 AM66 °FCloudy.6 mph94%29.98 "HgN/A
5:30 AM66 °FPassing clouds.10 mph94%29.95 "HgN/A
5:00 AM64 °FPartly cloudy.12 mph100%29.95 "HgN/A
4:30 AM64 °FLight rain. Passing clouds.10 mph100%29.98 "HgN/A
4:00 AM64 °FSprinkles. Partly cloudy.10 mph100%29.98 "HgN/A
3:30 AM64 °FSprinkles. Overcast.10 mph100%29.98 "HgN/A
3:00 AM64 °FSprinkles. Partly cloudy.9 mph100%29.98 "HgN/A
2:30 AM66 °FSprinkles. Mostly cloudy.9 mph94%29.98 "HgN/A
2:00 AM66 °FSprinkles. Overcast.8 mph94%30.01 "HgN/A
1:30 AM66 °FPartly cloudy.9 mph94%30.01 "HgN/A
1:00 AM66 °FPartly cloudy.12 mph94%30.01 "HgN/A
12:30 AM66 °FMostly cloudy.8 mph94%30.01 "HgN/A
12:00 AM66 °FLight rain. Mostly cloudy.10 mph94%30.01 "HgN/A
11:30 PM
Fri, Nov 27
66 °FSprinkles. Partly cloudy.10 mph94%30.04 "HgN/A
11:00 PM64 °FDrizzle. Mostly cloudy.6 mph100%30.01 "HgN/A
10:30 PM66 °FLight rain. Overcast.8 mph94%30.04 "HgN/A
10:00 PM66 °FLight rain. Passing clouds.10 mph94%30.01 "HgN/A
9:30 PM66 °FRain. Partly cloudy.12 mph100%30.01 "Hg3 mi
9:00 PM66 °FRain. Partly cloudy.9 mph100%29.98 "Hg3 mi
7:30 PM68 °FSprinkles. Partly sunny.6 mph88%29.98 "HgN/A
7:00 PM70 °FSprinkles. Mostly cloudy.10 mph83%29.95 "HgN/A
6:30 PM70 °FPartly sunny.9 mph83%29.95 "HgN/A
6:00 PM72 °FOvercast.12 mph83%29.98 "HgN/A
5:00 PM73 °FBroken clouds.13 mph69%29.98 "HgN/A
4:30 PM73 °FBroken clouds.14 mph69%29.98 "HgN/A
4:00 PM75 °FMore clouds than sun.13 mph69%29.98 "HgN/A
3:30 PM75 °FPartly sunny.10 mph65%29.98 "HgN/A
3:00 PM77 °FBroken clouds.9 mph61%30.01 "HgN/A
2:30 PM77 °FPartly sunny.12 mph57%30.01 "HgN/A
2:00 PM75 °FPassing clouds.13 mph61%30.04 "HgN/A
1:30 PM75 °FBroken clouds.10 mph61%30.04 "HgN/A
1:00 PM75 °FPartly sunny.8 mph57%30.04 "HgN/A
Weather by CustomWeather, © 2015

See weather overviewHow to use our weather pages